Regional Weather Roundup
Issued by NWS

Home | Current Version | Previous Version | Text Only | Print | Product List | Glossary Off
Versions: 1 2 3 4 5 6 7 8 9 10 11 12 13 14 15 16 17 18 19 20 21 22 23 24 25 26 27 28 29 30 31 32 33 34 35 36 37 38 39 40 41 42 43 44 45 46 47 48 49 50

000
ASUS43 KMKX 051411
RWRWI

WISCONSIN REGIONAL WEATHER ROUNDUP
NATIONAL WEATHER SERVICE MILWAUKEE/SULLIVAN WI
900 AM CDT SUN JUL 05 2015

NOTE: "FAIR" INDICATES FEW OR NO CLOUDS BELOW 12,000 FEET WITH NO
SIGNIFICANT WEATHER AND/OR OBSTRUCTIONS TO VISIBILITY.

WIZ001-002-006>008-014>016-023>028-051500-
NORTHWEST WISCONSIN

CITY           SKY/WX    TMP DP  RH WIND       PRES   REMARKS
SUPERIOR ARPT  MOSUNNY   64  60  86 CALM      29.91S
ASHLAND        PTSUNNY   72  65  78 SW10      29.94S
HAYWARD        MOSUNNY   71  61  70 S9        29.97F
SIREN          PTSUNNY   73  60  64 S9        29.94F
CUMBERLAND     MOSUNNY   70  61  73 S10       29.98S
RICE LAKE      MOSUNNY   72  61  68 S10       30.00S
CHETEK         MOSUNNY   72  63  72 S7        29.99S
LADYSMITH      SUNNY     71  63  75 S10       30.02S
EAU CLAIRE     SUNNY     73  62  68 S12       29.99R
MENOMONIE      MOSUNNY   72  63  74 S7        30.00R
NEW RICHMOND   MOSUNNY   72  61  69 S10       29.97S
OSCEOLA        PTSUNNY   71  62  73 S8        29.99S
$$

WIZ003>005-009-010-017-018-051500-
NORTH CENTRAL WISCONSIN

CITY           SKY/WX    TMP DP  RH WIND       PRES   REMARKS
MANITOWISH WTR MOSUNNY   71  64  78 SW10      30.01S
ARBOR VITAE    SUNNY     72  65  78 S8        30.02S
WOODRUFF       SUNNY     72  65  78 S8        30.02S
RHINELANDER    SUNNY     71  62  73 SW8       30.05R
EAGLE RIVER    SUNNY     70  63  78 SW9       30.03R
LAND O LAKES   SUNNY     71  62  72 SW8       30.03R
PHILLIPS       PTSUNNY   69  63  80 S7        30.01S
TOMAHAWK       SUNNY     68  62  82 SW5       30.05R
MEDFORD        SUNNY     69  62  77 S9        30.04R
MERRILL        SUNNY     71  64  77 SW6       30.05R
$$

WIZ029-030-035-036-043>047-051500-
CENTRAL WISCONSIN

CITY           SKY/WX    TMP DP  RH WIND       PRES   REMARKS
WAUSAU         SUNNY     72  62  71 SW6       30.02S
MOSINEE        SUNNY     70  64  83 S8        30.04F
MARSHFIELD     SUNNY     71  61  70 SW9       30.05R
STEVENS POINT  SUNNY     71  60  70 S7        30.04F
WAUPACA        SUNNY     72  65  78 S3        30.05S
WAUTOMA        SUNNY     72  64  75 S5        30.05F
WISC RAPIDS    SUNNY     72  61  68 SW7       30.05F
CAMP DOUGLAS   SUNNY     70  70 100 S5        30.04R
$$

WIZ011>013-019>022-031-037>040-048>050-051500-
NORTHEAST WISCONSIN

CITY           SKY/WX    TMP DP  RH WIND       PRES   REMARKS
ANTIGO         SUNNY     70  64  80 SW6       30.04F
SHAWANO        SUNNY     73  64  73 CALM      30.04F
OCONTO         SUNNY     73  65  74 SW3       30.04S
STURGEON BAY   SUNNY     72  63  73 SW5       30.07S
GREEN BAY      SUNNY     73  65  75 SW6       30.05S
MANITOWOC      SUNNY     72  65  78 MISG      30.07S
APPLETON       MOSUNNY   72  61  68 SW7       30.06S
CLINTONVILLE   SUNNY     72  61  68 SW3       30.04S
OSHKOSH        SUNNY     73  63  70 S7        30.06S
$$

WIZ032>034-041-042-053>061-051500-
SOUTHWEST WISCONSIN

CITY           SKY/WX    TMP DP  RH WIND       PRES   REMARKS
LA CROSSE      SUNNY     72  62  71 S10       30.01F
SPARTA         SUNNY     73  61  66 S6        30.04F
VIROQUA        SUNNY     70  62  76 S7        30.05F
BOSCOBEL       SUNNY     70  64  81 CALM      30.05R
PRAIRIE DU CHI SUNNY     70  62  74 CALM      30.03F
PLATTEVILLE    SUNNY     71  66  83 S7        30.07S
$$

WIZ056-057-062-063-064-067-068-051500-
SOUTH CENTRAL WISCONSIN

CITY           SKY/WX    TMP DP  RH WIND       PRES   REMARKS
REEDSBURG      SUNNY     70  63  78 S6        30.05S
BARABOO/DELLS  SUNNY     71  61  71 S7        30.06S
LONE ROCK      SUNNY     69  62  78 CALM      30.06S
MINERAL POINT  SUNNY     70  63  78 S7        30.07S
MADISON        SUNNY     73  61  65 SW8       30.06F
MIDDLETON      SUNNY     74  61  65 SW7       30.07F
WATERTOWN      SUNNY     70  67  90 S3        30.07S
MONROE         SUNNY     70  61  73 S8        30.08R
JANESVILLE     SUNNY     72  64  78 CALM      30.08R
$$

WIZ051-052-058>065-066-070>072-051500-
SOUTHEAST WISCONSIN

CITY           SKY/WX    TMP DP  RH WIND       PRES   REMARKS
MILWAUKEE      MOSUNNY   75  60  59 SW7       30.08S
WAUKESHA       SUNNY     70  61  73 SW6       30.10R
MILWAUKEE/TIMM SUNNY     73  59  60 CALM      30.09R
RACINE         SUNNY     75  60  59 VRB3      30.10S
BURLINGTON     SUNNY     68  62  82 CALM      30.09S
KENOSHA        SUNNY     74  62  66 SW3       30.09F
FOND DU LAC    SUNNY     73  64  73 S7        30.07S
SHEBOYGAN      SUNNY     73  63  70 SW6       30.07S
WEST BEND      SUNNY     73  61  64 SW3       30.08S
JUNEAU         SUNNY     69  63  80 S5        30.09S
$$

LSZ147-162-051500-
LAKE SUPERIOR

STATION/POSITION TIME  TEMP    WIND        PRES    WAVE
                       AIR SEA DIR/SP/G            HT/PER
                 (UTC) (F)     (DEG/KT/KT) (MB)    (FT/S)
W MID LAKE BUOY  1350   52 39  220/ 14/ 16 1013.1R   1
DEVILS ISLAND    1400   60     240/  2/  4 1012.9S
SAXON HARBOR     1300   71     200/  2/  8 1013.5
$$

LMZ867-665-643>646-051500-
LAKE MICHIGAN

STATION/POSITION TIME  TEMP    WIND        PRES    WAVE
                       AIR SEA DIR/SP/G            HT/PER
                 (UTC) (F)     (DEG/KT/KT) (MB)    (FT/S)
CHAMBERS ISLAND  1300   68     170/  4/  9 1017.3S
S GREEN BAY BUOY 1200   69 69  230/ 10/ 12 1018.7R
N MID LAKE BUOY  1350   52 45  190/  8/  8 1017.9S   1
NORTHPORT PIER   1300   63     150/  5/  7 1017.3S
SISTER BAY       1314   69     160/  6/  7   N/A
ALGOMA LAKESHORE 1226             CALM       N/A
KEWAUNEE LAKESHO 1300   62     170/  2/  5 1017.2R
SHEBOYGAN LAKESH 1400   68     170/  7/  8 1018.4S
PORT WASHINGTON  1300   67     180/  3/  4 1019.0S
ATWATER BUOY     1400   63 60  140/  6/  6 1019.7F
MILWAUKEE LAKESH 1300   67     160/  4/  5   N/A
KENOSHA   LAKESH 1400   66     170/  6/  7 1018.6S
$$

TC  - TEMPERATURE IN CELSIUS
VSB - VISIBILITY IN STATUTE MILES
WCI - WIND CHILL INDEX
HX  - HEAT INDEX



USA.gov is the U.S. government's official web portal to all federal, state and local government web resources and services.